Regional Weather Roundup
Issued by NWS Newport/Morehead, NC

Current Version | Previous Version | Text Only | Print | Product List | Glossary On
Versions: 1 2 3 4 5 6 7 8 9 10 11 12 13 14 15 16 17 18 19 20 21 22 23 24 25 26 27 28 29 30 31 32 33 34 35 36 37 38 39 40 41 42 43 44 45 46 47 48 49 50
000 ASUS42 KMHX 260013 RWRMHX WEATHER ROUNDUP FOR EASTERN NORTH CAROLINA NATIONAL WEATHER SERVICE NEWPORT/MOREHEAD CITY NC 800 PM EDT TUE APR 25 2017 NOTE: "FAIR" INDICATES FEW OR NO CLOUDS BELOW 12,000 FEET WITH NO SIGNIFICANT WEATHER AND/OR OBSTRUCTIONS TO VISIBILITY NCZ015>017-031-032-045>047-102-103-260100- NORTH COAST CITY SKY/WX TMP DP RH WIND PRES REMARKS EDENTON CLOUDY 69 62 79 CALM 29.66R ELIZABETH CITY LGT RAIN 67 65 93 CALM 29.64R KITTY HAWK CLOUDY 65 65 100 CALM 29.63R MANTEO MOCLDY 65 63 92 S5 29.64S $$ NCZ045>047-081-094-103-104-260100- CENTRAL COAST CITY SKY/WX TMP DP RH WIND PRES REMARKS FRISCO PTCLDY 69 60 73 W6 29.65R HAZE $$ NCZ095-097-098-100-101-260100- SOUTHERN COAST CITY SKY/WX TMP DP RH WIND PRES REMARKS BEAUFORT PTCLDY 68 64 87 SW14 29.65R CEDAR ISLAND NOT AVBL JACKSONVILLE PTCLDY 65 63 93 W6 29.66R PINEY ISLAND N/A N/A N/A N/A S6 29.65R WILMINGTON CLOUDY 65 61 87 W15 29.69R $$ NCZ011>013-027>030-043-044-078>080-089-090>093-098-260100- COASTAL PLAIN CITY SKY/WX TMP DP RH WIND PRES REMARKS AHOSKIE N/A 62 62 97 S3 29.66R CLINTON MOCLDY 65 60 84 W5 29.69R ELIZABETHTOWN CLOUDY 64 60 88 W3 29.70R GOLDSBORO PTCLDY 68 63 84 W7 29.64R GREENVILLE PTCLDY 66 63 88 CALM 29.68R HAVELOCK CLOUDY 68 62 81 SW6 29.66R KENANSVILLE MOCLDY 66 61 82 W9 29.67R KINSTON CLOUDY 66 64 94 CALM 29.66R NEW BERN CLOUDY 64 62 93 S3 29.66R RICHLANDS CLOUDY 66 62 87 SW9 29.67R ROCKY MOUNT MOCLDY 69 61 75 W8 29.65R WASHINGTON MOCLDY 65 62 92 CALM 29.65R WHITEVILLE CLOUDY 63 59 87 CALM 29.70R $$ AMZ130-135-150-152-154-156-158-170-250-252-270-ANZ085-086-088-633-658-670-260100- MARINE OBSERVATIONS STATION/POSITION TIME TEMP WIND PRES WAVE SWELL AIR SEA DIR/SP/G HT/PER HT/PER (UTC) (F) (DEG/KT/KT) (MB) (FT/S) (FT/S) CHESAPEAKE LIGHT NOT AVBL 64 E VA BEACH 2350 59 55 190/ 10/ 12 1003.3 10/11 10/11 DUCK 2342 61 60 140/ 4/ 5 1003.0 2 E DUCK 0000 60 N/A 7/11 3/11 OREGON INLET 2348 120/ 2/ 3 1003.6 13E OREGON INLT 2348 59 N/A 8/11 8/11 HATTERAS CG 2342 68 68 220/ 6/ 8 1003.4 DIAMOND BUOY 2350 72 78 220/ 16/ 19 1003.4 8/10 7/10 CAPE LOOKOUT 0000 68 240/ 13/ 18 1003.8 BEAUFORT LAB 2342 68 66 240/ 7/ 12 1003.0 30 SE NEW RVR IN 2308 67 240/ 16/ 21 1004.0 30 SE NEW RVR IN 2343 71 N/A 7/ 9 2/11 27 SE WRIGHTSVLE 2308 67 72 240/ 17/ 23 1003.9 5 SE WRIGHTSVLE 2308 67 70 270/ 16/ 25 1004.3 225 S CAPE HAT 2350 73 75 230/ 19/ 23 1007.4 8/ 8 41 SE CHARLESTON 2350 69 73 230/ 14/ 17 1006.5 5/ 9 3/ 9 $$

USA.gov is the U.S. government's official web portal to all federal, state and local government web resources and services.